Weather Roundup
Issued by NWS Chicago, IL

Home | Current Version | Previous Version | Text Only | Print | Product List | Glossary Off
Versions: 1 2 3 4 5 6 7 8 9 10 11 12 13 14 15 16 17 18 19 20 21 22 23 24 25 26 27 28 29 30 31 32 33 34 35 36 37 38 39 40 41 42 43 44 45 46 47 48 49 50

000
NZUS59 KLOT 280806
HRRLOT

CHICAGO AREA WEATHER ROUNDUP
NATIONAL WEATHER SERVICE CHICAGO/ROMEOVILLE IL
200 AM CST SAT FEB 28 2015

NOTE: "FAIR" INDICATES FEW OR NO CLOUDS BELOW 12,000 FEET WITH NO
SIGNIFICANT WEATHER AND/OR OBSTRUCTIONS TO VISIBILITY.

* THESE STATIONS ARE NOT UNDER NWS QUALITY CONTROL. THEY ALSO MAY NOT
  REPORT WEATHER SUCH AS PRECIPITATION OR FOG.

ILZ005-006-012>014-019>023-280900-
NORTHEAST ILLINOIS

CITY           SKY/WX    TMP DP  RH WIND       PRES   REMARKS
OHARE          CLEAR     -5  -9  83 CALM      30.67R
MIDWAY         CLEAR      4  -5  66 SW3       30.69S
AURORA         PTCLDY   -13 -19  75 CALM      30.68R
LANSING*       PTCLDY    -7 -12  81 CALM      30.69S
JOLIET*        PTCLDY    -8 -12  82 CALM      30.69S
WAUKEGAN       PTCLDY    -3  -8  79 SW5       30.65S WCI -13
DUPAGE AIRPORT PTCLDY    -8 -12  83 CALM      30.66S
WHEELING       CLEAR      1  -6  72 CALM      30.69R
KANKAKEE*      PTCLDY    -3  -7  84 CALM      30.69S
MORRIS*        PTCLDY    -8 -11  86 CALM      30.68S
LEWIS AIRPORT* PTCLDY    -2  -6  80 CALM      30.68S
NORTHERLY IS     N/A      8  -1  66 W5          N/A  WCI   0
$$

WIZ051-052-058>065-066-070>072-280900-
SOUTHEAST WISCONSIN

CITY           SKY/WX    TMP DP  RH WIND       PRES   REMARKS
MILWAUKEE      CLEAR      3  -7  63 W7        30.64S WCI  -9
KENOSHA*       PTCLDY    -7 -11  83 W6        30.65S WCI -20
RACINE*        PTCLDY     0  -9  65 SW6       30.66S WCI -12
BURLINGTON     PTCLDY   -10 -14  80 SW3       30.64S
WAUKESHA       CLEAR      1  -8  66 SW5       30.63S WCI  -8
WEST BEND      CLEAR      3  -6  66 W6        30.60S WCI  -8
$$

INZ001>003-010>013-019-020-280900-
NORTHWEST INDIANA

CITY           SKY/WX    TMP DP  RH WIND       PRES   REMARKS
GARY*          PTCLDY    -3 -12  68 CALM      30.70S
MICHIGAN CITY* NOT AVBL
RENSSELAER*    NOT AVBL
VALPARAISO     PTCLDY    -7 -10  87 CALM      30.68S
$$

LMZ740>746-280900-
SOUTHERN LAKE MICHIGAN

STATION/POSITION TIME  SKY/WX   TEMP WIND        PRES    VSBY
                                AIR  DIR/SP/G
                 (UTC)          (F)  (DEG/KT/KT) (MB)    (MI)
HARRISON CRIB    0800             9  260/ 10/ 14   N/A
BURNHAM HARBOR   0800             8  270/  4/  8   N/A
CALUMET HARBOR   0800             4  340/  3/  4 1037.7S
BURNS HARBOR     NOT AVBL
MICHIGAN CITY    0800             4  170/  5/  6   N/A
$$

ABBREVIATIONS USED IN REMARKS
   TC - TEMPERATURE IN CELSIUS
  WCI - WIND CHILL INDEX
   HX - HEAT INDEX
  VSB - VISIBILITY
$$


USA.gov is the U.S. government's official web portal to all federal, state and local government web resources and services.